Date,TemperatureHighF,TemperatureAvgF,TemperatureLowF,DewpointHighF,DewpointAvgF,DewpointLowF,HumidityHigh,HumidityAvg,HumidityLow,PressureMaxIn,PressureMinIn,WindSpeedMaxMPH,WindSpeedAvgMPH,GustSpeedMaxMPH,PrecipitationSumIn
2013-1-1,39.2,36.6,30.3,31.7,29.2,21.9,81,74,66,30.04,29.90,11,4,14,0.00
2013-1-2,30.6,27.9,25.8,22.2,18.3,16.1,74,67,58,30.13,30.00,15,4,17,0.00
2013-1-3,33.3,26.7,20.6,21.0,18.0,14.9,80,70,59,30.24,30.13,15,7,15,0.00
2013-1-4,36.9,32.1,27.7,25.1,22.5,20.2,75,67,59,30.18,30.06,23,13,23,0.00
2013-1-5,37.3,30.8,25.9,24.6,22.3,20.7,85,71,57,30.38,30.11,19,7,19,0.00
2013-1-6,46.3,36.5,23.1,32.6,28.6,21.4,97,74,54,30.24,30.02,18,6,18,0.01
2013-1-7,43.1,35.1,22.8,31.5,26.9,20.4,92,73,58,30.43,30.13,12,3,16,0.00
2013-1-8,48.3,32.5,21.6,34.8,27.8,19.7,97,84,58,30.44,30.38,10,2,13,0.00
2013-1-9,46.0,37.4,25.7,40.0,33.7,24.2,96,87,75,30.41,30.21,8,3,12,0.00
2013-1-10,43.0,41.1,39.7,34.3,31.3,27.9,77,68,56,30.43,30.35,9,5,13,0.00
2013-1-11,44.5,39.2,30.6,41.6,35.1,25.8,97,85,78,30.52,30.09,10,4,10,0.37
2013-1-12,54.6,44.8,40.8,52.5,43.6,40.1,98,95,85,30.18,30.10,5,3,5,0.01
2013-1-13,46.3,43.3,38.9,46.0,42.8,38.1,99,98,96,30.15,30.00,10,4,10,0.02
2013-1-14,52.4,48.2,39.9,52.4,45.1,37.2,100,90,68,30.30,29.97,16,7,16,0.31
2013-1-15,39.3,36.2,32.6,37.7,32.1,29.9,96,85,78,30.34,30.19,9,1,9,0.49
2013-1-16,32.6,32.2,32.0,31.1,30.9,30.7,96,95,93,30.18,30.12,3,1,8,0.59
2013-1-17,40.4,38.0,34.9,36.5,31.3,29.6,94,77,66,30.12,29.97,17,7,17,0.00
2013-1-18,35.2,28.9,21.5,29.4,18.2,10.7,80,65,44,30.50,30.04,25,9,25,0.00
2013-1-19,47.6,36.5,25.0,31.8,27.2,16.3,86,69,51,30.43,29.97,20,11,20,0.00
2013-1-20,53.4,41.4,28.8,33.6,26.2,16.6,70,56,35,30.08,29.78,28,17,28,0.00
2013-1-21,33.6,28.2,22.3,24.2,17.2,11.8,90,64,51,30.12,29.85,14,3,14,0.02
2013-1-22,23.5,16.4,11.6,14.9,1.7,-1.9,73,52,42,30.30,29.92,20,9,31,0.00
2013-1-23,18.5,13.4,9.5,4.3,1.4,-1.4,75,59,45,30.33,30.20,15,5,20,0.00
2013-1-24,23.2,17.2,9.8,10.0,5.5,0.4,83,62,37,30.50,30.15,17,4,21,0.00
2013-1-25,20.4,15.6,7.3,13.2,6.4,1.7,89,68,46,30.51,30.10,7,2,12,0.00
2013-1-26,25.3,18.5,6.1,16.2,12.7,3.5,93,78,63,30.45,30.10,11,3,16,0.00
2013-1-27,32.9,21.5,8.4,18.6,13.8,5.6,92,73,52,30.60,30.44,10,2,12,0.00
2013-1-28,36.3,30.6,20.7,35.5,28.7,16.9,97,92,82,30.54,30.07,10,3,13,0.10
2013-1-29,60.7,43.6,35.0,51.8,41.4,34.2,98,92,70,30.16,30.03,5,1,8,0.00
2013-1-30,65.6,52.2,39.6,60.3,50.7,38.3,99,95,82,30.03,29.28,19,4,32,0.94
2013-1-31,61.3,41.2,26.5,60.9,30.9,11.8,100,68,44,29.88,29.11,31,13,39,0.59